• In Hungary
  • List of Countries
  • For 7 days
  • Water Temperature
  • Satellite Maps
  • Weather Map
  • News
  • Weather Widgets
  • user-avatar
    Login

    Hourly Weather Rustawi

    Today, 16 November, Friday

    Time Temperature Precipitation Wind Pressure Humidity
    00:00 +8°C° 0.4 mm 1 mps 727 mmHg 85%
    01:00 +8°C° 0.6 mm 1 mps 727 mmHg 85%
    02:00 +8°C° 0.6 mm 1 mps 727 mmHg 85%
    03:00 +8°C° 0 mm 1 mps 727 mmHg 85%
    04:00 +8°C° 0.7 mm 1 mps 727 mmHg 85%
    05:00 +8°C° 0.7 mm 1 mps 727 mmHg 85%
    06:00 +8°C° 0.7 mm 1 mps 727 mmHg 85%
    07:00 +9°C° 0.5 mm 1 mps 727 mmHg 83%
    08:00 +9°C° 0.5 mm 1 mps 727 mmHg 82%
    09:00 +9°C° 0.5 mm 1 mps 727 mmHg 81%
    10:00 +9°C° 0.6 mm 1 mps 727 mmHg 80%
    11:00 +10°C° 0.6 mm 1 mps 727 mmHg 80%
    12:00 +10°C° 0.6 mm 1 mps 727 mmHg 79%
    13:00 +10°C° 0.4 mm 1 mps 727 mmHg 79%
    14:00 +10°C° 0.4 mm 1 mps 727 mmHg 78%
    15:00 +11°C° 0.4 mm 1 mps 727 mmHg 78%
    16:00 +10°C° 0.1 mm 1 mps 728 mmHg 80%
    17:00 +10°C° 0.1 mm 1 mps 728 mmHg 81%
    18:00 +9°C° 0.1 mm 1 mps 729 mmHg 83%
    19:00 +9°C° 0.1 mm 1 mps 729 mmHg 83%
    20:00 +9°C° 0.1 mm 1 mps 729 mmHg 83%
    21:00 +9°C° 0.1 mm 1 mps 729 mmHg 83%
    22:00 +9°C° 0 mm 1 mps 729 mmHg 82%
    23:00 +9°C° 0 mm 1 mps 729 mmHg 82%

    Tomorrow, 17 November, Saturday

    Time Temperature Precipitation Wind Pressure Humidity
    00:00 +9°C° 0 mm 1 mps 729 mmHg 82%
    01:00 +9°C° 0 mm 1 mps 729 mmHg 82%
    02:00 +9°C° 0 mm 1 mps 729 mmHg 81%
    03:00 +9°C° 0 mm 1 mps 729 mmHg 81%
    04:00 +9°C° 0.1 mm 1 mps 729 mmHg 81%
    05:00 +9°C° 0.1 mm 1 mps 729 mmHg 80%
    06:00 +9°C° 0.1 mm 1 mps 730 mmHg 80%
    07:00 +9°C° 0.5 mm 1 mps 730 mmHg 79%
    08:00 +9°C° 0.5 mm 2 mps 730 mmHg 77%
    09:00 +9°C° 0.5 mm 2 mps 730 mmHg 76%
    10:00 +10°C° 0.1 mm 2 mps 730 mmHg 72%
    11:00 +12°C° 0.1 mm 2 mps 730 mmHg 69%
    12:00 +13°C° 0.1 mm 2 mps 730 mmHg 65%
    13:00 +14°C° 0 mm 2 mps 730 mmHg 64%
    14:00 +14°C° 0 mm 2 mps 730 mmHg 63%
    15:00 +14°C° 0 mm 2 mps 730 mmHg 62%
    16:00 +13°C° 0 mm 2 mps 731 mmHg 66%
    17:00 +10°C° 0 mm 2 mps 731 mmHg 70%
    18:00 +9°C° 0 mm 2 mps 731 mmHg 74%
    19:00 +9°C° 0 mm 2 mps 731 mmHg 74%
    20:00 +8°C° 0 mm 2 mps 732 mmHg 75%
    21:00 +7°C° 0 mm 2 mps 732 mmHg 75%
    22:00 +7°C° 0 mm 2 mps 732 mmHg 74%
    23:00 +7°C° 0 mm 2 mps 732 mmHg 74%

    Day after tomorrow, 18 November, Sunday

    Time Temperature Precipitation Wind Pressure Humidity
    00:00 +6°C° 0 mm 2 mps 732 mmHg 73%
    01:00 +6°C° 0 mm 2 mps 732 mmHg 72%
    02:00 +6°C° 0 mm 2 mps 732 mmHg 71%
    03:00 +6°C° 0 mm 2 mps 731 mmHg 70%
    04:00 +5°C° 0 mm 2 mps 731 mmHg 69%
    05:00 +5°C° 0 mm 2 mps 731 mmHg 68%
    06:00 +5°C° 0 mm 2 mps 731 mmHg 68%
    07:00 +6°C° 0 mm 2 mps 731 mmHg 64%
    08:00 +8°C° 0 mm 1 mps 731 mmHg 61%
    09:00 +9°C° 0 mm 1 mps 731 mmHg 57%
    10:00 +10°C° 0 mm 1 mps 730 mmHg 55%
    11:00 +11°C° 0 mm 1 mps 729 mmHg 53%
    12:00 +11°C° 0 mm 1 mps 729 mmHg 51%
    13:00 +12°C° 0 mm 1 mps 729 mmHg 51%
    14:00 +12°C° 0 mm 1 mps 729 mmHg 52%
    15:00 +12°C° 0 mm 1 mps 728 mmHg 52%
    16:00 +11°C° 0 mm 1 mps 729 mmHg 55%
    17:00 +10°C° 0 mm 1 mps 729 mmHg 59%
    18:00 +9°C° 0 mm 1 mps 729 mmHg 62%
    19:00 +8°C° 0 mm 1 mps 729 mmHg 63%
    20:00 +8°C° 0 mm 1 mps 729 mmHg 64%
    21:00 +7°C° 0 mm 1 mps 729 mmHg 64%
    22:00 +7°C° 0 mm 1 mps 729 mmHg 64%
    23:00 +7°C° 0 mm 1 mps 729 mmHg 64%

    19 November, Monday

    Time Temperature Precipitation Wind Pressure Humidity
    00:00 +6°C° 0 mm 1 mps 729 mmHg 63%
    01:00 +6°C° 0 mm 1 mps 729 mmHg 63%
    02:00 +6°C° 0 mm 1 mps 729 mmHg 63%
    03:00 +6°C° 0 mm 1 mps 729 mmHg 63%
    04:00 +6°C° 0 mm 1 mps 729 mmHg 63%
    05:00 +5°C° 0 mm 1 mps 729 mmHg 63%
    06:00 +5°C° 0 mm 1 mps 729 mmHg 63%
    07:00 +6°C° 0 mm 1 mps 729 mmHg 60%
    08:00 +8°C° 0 mm 1 mps 729 mmHg 58%
    09:00 +9°C° 0 mm 1 mps 729 mmHg 55%
    10:00 +10°C° 0 mm 1 mps 729 mmHg 53%
    11:00 +11°C° 0 mm 1 mps 729 mmHg 52%
    12:00 +12°C° 0 mm 1 mps 728 mmHg 50%
    13:00 +12°C° 0 mm 1 mps 728 mmHg 51%
    14:00 +12°C° 0 mm 1 mps 728 mmHg 51%
    15:00 +12°C° 0 mm 1 mps 728 mmHg 51%
    16:00 +11°C° 0 mm 1 mps 728 mmHg 55%
    17:00 +10°C° 0 mm 1 mps 729 mmHg 58%
    18:00 +9°C° 0 mm 1 mps 729 mmHg 62%
    19:00 +8°C° 0 mm 1 mps 729 mmHg 63%
    20:00 +8°C° 0 mm 1 mps 729 mmHg 63%
    21:00 +8°C° 0 mm 1 mps 730 mmHg 64%
    22:00 +8°C° 0 mm 1 mps 730 mmHg 64%
    23:00 +7°C° 0 mm 1 mps 730 mmHg 65%

    20 November, Tuesday

    Time Temperature Precipitation Wind Pressure Humidity
    00:00 +7°C° 0 mm 1 mps 730 mmHg 65%
    01:00 +7°C° 0 mm 1 mps 730 mmHg 66%
    02:00 +7°C° 0 mm 1 mps 730 mmHg 66%
    03:00 +7°C° 0 mm 1 mps 730 mmHg 67%
    04:00 +6°C° 0 mm 1 mps 729 mmHg 67%
    05:00 +6°C° 0 mm 1 mps 729 mmHg 67%
    06:00 +6°C° 0 mm 1 mps 729 mmHg 67%
    07:00 +7°C° 0 mm 1 mps 729 mmHg 64%
    08:00 +9°C° 0 mm 1 mps 730 mmHg 61%
    09:00 +10°C° 0 mm 1 mps 730 mmHg 58%
    10:00 +11°C° 0 mm 1 mps 730 mmHg 54%
    11:00 +12°C° 0 mm 1 mps 729 mmHg 51%
    12:00 +13°C° 0 mm 1 mps 729 mmHg 47%
    13:00 +13°C° 0 mm 1 mps 729 mmHg 48%
    14:00 +13°C° 0 mm 1 mps 729 mmHg 49%
    15:00 +13°C° 0 mm 1 mps 729 mmHg 51%
    16:00 +12°C° 0 mm 1 mps 729 mmHg 54%
    17:00 +11°C° 0 mm 1 mps 730 mmHg 57%
    18:00 +9°C° 0 mm 0 mps 730 mmHg 61%
    19:00 +10°C° 0 mm 1 mps 730 mmHg 62%
    20:00 +9°C° 0 mm 1 mps 731 mmHg 63%
    21:00 +9°C° 0 mm 1 mps 731 mmHg 64%
    22:00 +9°C° 0 mm 1 mps 731 mmHg 64%
    23:00 +9°C° 0 mm 1 mps 731 mmHg 65%

    21 November, Wednesday

    Time Temperature Precipitation Wind Pressure Humidity
    00:00 +8°C° 0 mm 1 mps 731 mmHg 66%
    01:00 +8°C° 0 mm 1 mps 731 mmHg 66%
    02:00 +8°C° 0 mm 1 mps 730 mmHg 67%
    03:00 +8°C° 0 mm 1 mps 730 mmHg 67%
    04:00 +8°C° 0 mm 1 mps 730 mmHg 68%
    05:00 +8°C° 0 mm 1 mps 730 mmHg 68%
    06:00 +7°C° 0 mm 1 mps 730 mmHg 68%
    07:00 +9°C° 0 mm 1 mps 730 mmHg 65%
    08:00 +10°C° 0 mm 1 mps 730 mmHg 61%
    09:00 +11°C° 0 mm 1 mps 730 mmHg 58%
    10:00 +12°C° 0 mm 1 mps 729 mmHg 54%
    11:00 +14°C° 0 mm 1 mps 729 mmHg 51%
    12:00 +15°C° 0 mm 1 mps 728 mmHg 48%
    13:00 +15°C° 0 mm 1 mps 728 mmHg 48%
    14:00 +15°C° 0 mm 1 mps 727 mmHg 49%
    15:00 +15°C° 0 mm 1 mps 727 mmHg 49%
    16:00 +14°C° 0 mm 1 mps 727 mmHg 53%
    17:00 +12°C° 0 mm 1 mps 727 mmHg 58%
    18:00 +10°C° 0 mm 0 mps 727 mmHg 62%
    19:00 +11°C° 0 mm 1 mps 727 mmHg 62%
    20:00 +10°C° 0 mm 1 mps 727 mmHg 63%
    21:00 +10°C° 0 mm 1 mps 727 mmHg 63%
    22:00 +10°C° 0 mm 1 mps 726 mmHg 63%
    23:00 +10°C° 0 mm 1 mps 726 mmHg 63%
    Show more